[TLELIST] Archives

 

[list_settings.list_name] Current TLEs

February 18th 2009 PST

HST 1 20580U 90037B 09047.66157543 .00000304 00000-0 10672-4 0 3284 2 20580 028.4686 168.6071 0003749 103.7597 256.3409 15.00455292831739 ISS (ZARYA) 1 25544U 98067A 09048.16531250 .00008287 00000-0 69453-4 0 2870 2 25544 051.6392 201.5841 0009134 034.4151 317.7040 15.70941073587069 CXO 1 25867U 99040B 09047.50000000 -.00000184 +00000-0 +10000-3 0 02952 2 25867 064.8983 073.2368 7298631 276.6219 358.8146 00.37806320004554 ____________________________________________________________________ These 2-Line ...Continue Reading

[list_settings.list_name] Current TLEs

February 17th 2009 PST

HST 1 20580U 90037B 09045.73262153 +.00000267 +00000-0 +77763-5 0 03388 2 20580 028.4686 181.1897 0003630 082.9322 277.1675 15.00454507831440 ISS (ZARYA) 1 25544U 98067A 09046.53469765 .00006536 00000-0 55882-4 0 2764 2 25544 051.6396 209.9187 0008886 029.5168 094.7186 15.70906565586816 CXO 1 25867U 99040B 09044.83333333 -.00000126 +00000-0 +10000-3 0 02948 2 25867 064.8857 073.2959 7291253 276.6588 355.7480 00.37805291004544 ____________________________________________________________________ These 2-Line ...Continue Reading

[list_settings.list_name] Current TLEs

February 16th 2009 PST

HST 1 20580U 90037B 09044.73488638 .00000272 00000-0 81434-5 0 3268 2 20580 028.4682 187.6991 0003636 071.5824 288.5160 15.00454292831298 ISS (ZARYA) 1 25544U 98067A 09046.19200231 .00006027 00000-0 51925-4 0 2733 2 25544 051.6398 211.6717 0008806 028.7227 316.1697 15.70899005586757 CXO 1 25867U 99040B 09044.83333333 -.00000126 +00000-0 +10000-3 0 02948 2 25867 064.8857 073.2959 7291253 276.6588 355.7480 00.37805291004544 ____________________________________________________________________ These 2-Line ...Continue Reading

[list_settings.list_name] Current TLEs

February 15th 2009 PST

HST 1 20580U 90037B 09044.73488638 .00000272 00000-0 81434-5 0 3268 2 20580 028.4682 187.6991 0003636 071.5824 288.5160 15.00454292831298 ISS (ZARYA) 1 25544U 98067A 09044.74794314 .00004057 00000-0 36571-4 0 2643 2 25544 051.6395 219.0537 0008769 023.1642 069.7754 15.70873159586537 CXO 1 25867U 99040B 09044.83333333 -.00000126 +00000-0 +10000-3 0 02948 2 25867 064.8857 073.2959 7291253 276.6588 355.7480 00.37805291004544 ____________________________________________________________________ These 2-Line ...Continue Reading

[list_settings.list_name] Current TLEs

February 14th 2009 PST

HST 1 20580U 90037B 09042.87244647 +.00000296 +00000-0 +10038-4 0 03381 2 20580 028.4688 199.8559 0003564 051.2941 308.7965 15.00454250831016 ISS (ZARYA) 1 25544U 98067A 09042.91488216 +.00003831 +00000-0 +34822-4 0 02535 2 25544 051.6406 228.4224 0008681 017.1239 142.6785 15.70855841586246 CXO 1 25867U 99040B 09042.20833333 -.00000054 +00000-0 +10000-3 0 02931 2 25867 064.8692 073.3672 7286488 276.6955 358.3158 00.37807178004532 ____________________________________________________________________ These 2-Line ...Continue Reading

[list_settings.list_name] Current TLEs

February 13th 2009 PST

HST 1 20580U 90037B 09041.87470995 +.00000326 +00000-0 +12393-4 0 03332 2 20580 028.4690 206.3666 0003505 041.0755 319.0098 15.00454230830869 ISS (ZARYA) 1 25544U 98067A 09043.09503594 .00003682 00000-0 33656-4 0 2541 2 25544 051.6410 227.5020 0008680 017.5983 081.6728 15.70856935586271 CXO 1 25867U 99040B 09042.20833333 -.00000054 +00000-0 +10000-3 0 02931 2 25867 064.8692 073.3672 7286488 276.6955 358.3158 00.37807178004532 ____________________________________________________________________ These 2-Line ...Continue Reading

[list_settings.list_name] Current TLEs

February 12th 2009 PST

HST 1 20580U 90037B 09041.87470995 .00000326 00000-0 12393-4 0 3242 2 20580 028.4690 206.3666 0003505 041.0755 319.0098 15.00454230830869 ISS (ZARYA) 1 25544U 98067A 09041.77197917 .00004783 00000-0 42288-4 0 2467 2 25544 051.6405 234.2647 0008694 013.1959 159.0783 15.70849332586066 CXO 1 25867U 99040B 09042.20833333 -.00000054 +00000-0 +10000-3 0 02931 2 25867 064.8692 073.3672 7286488 276.6955 358.3158 00.37807178004532 ____________________________________________________________________ These 2-Line ...Continue Reading

[list_settings.list_name] Current TLEs

February 11th 2009 PST

HST 1 20580U 90037B 09040.81045755 .00000331 00000-0 12777-4 0 3238 2 20580 028.4689 213.3082 0003517 029.2392 330.8397 15.00453890830702 ISS (ZARYA) 1 25544U 98067A 09040.54932038 .00009151 00000-0 76470-4 0 2398 2 25544 051.6413 240.5121 0008546 006.3137 087.1784 15.70852980585873 CXO 1 25867U 99040B 09039.58333333 -.00000065 +00000-0 +10000-3 0 02924 2 25867 064.8626 073.5001 7280065 276.7012 000.9139 00.37803774004523 ____________________________________________________________________ These 2-Line ...Continue Reading

[list_settings.list_name] Current TLEs

February 10th 2009 PST

HST 1 20580U 90037B 09038.88149903 +.00000304 +00000-0 +10673-4 0 03392 2 20580 028.4691 225.8912 0003489 007.0625 353.0014 15.00453108830419 ISS (ZARYA) 1 25544U 98067A 09039.71246285 .00011202 00000-0 92546-4 0 2322 2 25544 051.6410 244.7899 0008478 005.0622 032.8112 15.70845906585745 CXO 1 25867U 99040B 09039.58333333 -.00000065 +00000-0 +10000-3 0 02924 2 25867 064.8626 073.5001 7280065 276.7012 000.9139 00.37803774004523 ____________________________________________________________________ These 2-Line ...Continue Reading

[list_settings.list_name] Current TLEs

February 9th 2009 PST

HST 1 20580U 90037B 09038.94801483 .00000307 00000-0 10908-4 0 3223 2 20580 028.4691 225.4573 0003489 007.9868 352.0776 15.00453155830423 ISS (ZARYA) 1 25544U 98067A 09037.88231065 +.00009208 +00000-0 +77059-4 0 02222 2 25544 051.6405 254.1452 0008777 356.7713 124.6908 15.70806697585453 CXO 1 25867U 99040B 09036.91666667 -.00000071 +00000-0 +10000-3 0 02913 2 25867 064.8601 073.5848 7271416 276.7575 357.8026 00.37794944004515 ____________________________________________________________________ These 2-Line ...Continue Reading
  • This mailing list is a public mailing list - anyone may join or leave, at any time.
  • This mailing list is announce-only.

International Space Station (ISS) / Hubble Space Telescope (HST) / Chandra X-Ray Observatory Orbital Data via EMAIL

Privacy Policy:

Private list